User: anonymous   Login
Location: Newark
(15.4608°S, 41.1635°W)
Time: 12:43:41
(UTC+00:00)
Language:

A-11 Canister half - Orbit

View from above orbital plane
View from above orbital plane
View from above satellite
View from above satellite

Ground track
Ground track

The orbit data is extracted from the following two-line orbital elements,

1 00053U 60009E   21065.72534894 -.00000162  00000-0 -75293-3 0  9999
2 00053  47.2753 170.1805 0099853 136.9673 223.8976 12.17253907700516
Epoch (UTC): 06 March 2021 17:24:30
Eccentricity: 0.0099853
inclination: 47.2753°
perigee height: 1525 km
apogee height: 1684 km
right ascension of ascending node: 170.1805°
argument of perigee: 136.9673°
revolutions per day: 12.17253907
mean anomaly at epoch: 223.8976°
orbit number at epoch: 70051

The dashed part of the orbit path shows where the satellite is in the earth's shadow,  

DLR